TimeEST,TemperatureF,Dew PointF,Humidity,Sea Level PressureIn,VisibilityMPH,Wind Direction,Wind SpeedMPH,Gust SpeedMPH,PrecipitationIn,Events,Conditions,WindDirDegrees,DateUTC
12:54 AM,35.1,28.9,78,30.19,10.0,NW,8.1,-,N/A,,Mostly Cloudy,320,2012-12-09 05:54:00
1:54 AM,34.0,28.9,82,30.21,10.0,WNW,6.9,-,N/A,,Mostly Cloudy,290,2012-12-09 06:54:00
2:54 AM,34.0,28.0,79,30.23,10.0,WNW,4.6,-,N/A,,Mostly Cloudy,300,2012-12-09 07:54:00
3:54 AM,34.0,28.0,79,30.26,10.0,NW,8.1,-,N/A,,Overcast,320,2012-12-09 08:54:00
4:54 AM,33.1,28.0,82,30.26,10.0,NNW,4.6,-,N/A,,Overcast,340,2012-12-09 09:54:00
5:54 AM,32.0,26.1,79,30.27,10.0,NW,5.8,-,N/A,,Mostly Cloudy,320,2012-12-09 10:54:00
6:54 AM,30.9,25.0,79,30.30,10.0,Calm,Calm,-,N/A,,Mostly Cloudy,0,2012-12-09 11:54:00
7:16 AM,30.2,24.8,80,30.27,10.0,Calm,Calm,-,N/A,,Mostly Cloudy,0,2012-12-09 12:16:00
7:54 AM,30.9,26.1,82,30.30,10.0,Calm,Calm,-,N/A,,Overcast,0,2012-12-09 12:54:00
8:01 AM,30.2,26.6,86,30.29,10.0,Calm,Calm,-,N/A,,Overcast,0,2012-12-09 13:01:00
8:54 AM,32.0,26.1,79,30.30,10.0,NE,3.5,-,N/A,,Overcast,40,2012-12-09 13:54:00
9:12 AM,33.8,26.6,75,30.28,10.0,Calm,Calm,-,N/A,,Mostly Cloudy,0,2012-12-09 14:12:00
9:54 AM,34.0,26.1,73,30.29,10.0,East,6.9,-,N/A,,Mostly Cloudy,90,2012-12-09 14:54:00
10:35 AM,33.8,26.6,75,30.27,10.0,East,6.9,-,N/A,,Mostly Cloudy,90,2012-12-09 15:35:00
10:54 AM,35.1,27.0,72,30.28,10.0,East,8.1,-,N/A,,Mostly Cloudy,80,2012-12-09 15:54:00
11:54 AM,36.0,28.0,73,30.24,10.0,East,8.1,-,N/A,,Overcast,90,2012-12-09 16:54:00
12:54 PM,36.0,28.9,76,30.20,10.0,East,10.4,-,N/A,,Overcast,100,2012-12-09 17:54:00
1:54 PM,37.0,28.9,73,30.18,10.0,ESE,12.7,-,N/A,,Overcast,110,2012-12-09 18:54:00
2:07 PM,37.4,28.4,70,30.16,10.0,ESE,10.4,-,N/A,,Overcast,120,2012-12-09 19:07:00
2:54 PM,37.0,28.9,73,30.17,10.0,East,11.5,-,N/A,,Overcast,90,2012-12-09 19:54:00
3:54 PM,37.0,28.9,73,30.15,10.0,East,9.2,-,N/A,,Overcast,80,2012-12-09 20:54:00
4:54 PM,37.0,32.0,82,30.12,10.0,ENE,9.2,-,0.00,Rain,Light Rain,60,2012-12-09 21:54:00
5:04 PM,35.6,32.0,87,30.09,7.0,ENE,10.4,-,0.00,Rain,Light Rain,60,2012-12-09 22:04:00
5:19 PM,35.6,32.0,87,30.08,9.0,ENE,11.5,-,0.01,Rain,Light Rain,70,2012-12-09 22:19:00
5:54 PM,36.0,33.1,89,30.08,10.0,ENE,10.4,-,0.01,Rain,Light Rain,70,2012-12-09 22:54:00
6:54 PM,36.0,33.1,89,30.04,10.0,East,11.5,-,0.01,Rain,Light Rain,90,2012-12-09 23:54:00
7:54 PM,36.0,33.1,89,29.97,9.0,East,12.7,-,0.02,Rain,Light Rain,100,2012-12-10 00:54:00
8:54 PM,36.0,34.0,93,29.90,8.0,East,13.8,-,0.03,Rain,Light Rain,100,2012-12-10 01:54:00
9:54 PM,37.0,35.1,93,29.86,5.0,ESE,9.2,-,0.06,Rain,Rain,110,2012-12-10 02:54:00
10:34 PM,39.2,37.4,93,29.82,10.0,SE,9.2,-,0.02,,Overcast,140,2012-12-10 03:34:00
10:54 PM,41.0,39.0,93,29.82,10.0,SSE,9.2,-,0.03,Rain,Light Rain,150,2012-12-10 03:54:00
11:54 PM,46.0,39.9,79,29.79,10.0,South,15.0,23.0,0.00,,Overcast,180,2012-12-10 04:54:00